Time,TemperatureF,DewpointF,PressureIn,WindDirection,WindDirectionDegrees,WindSpeedMPH,WindSpeedGustMPH,Humidity,HourlyPrecipIn,Conditions,Clouds,dailyrainin,SoftwareType,DateUTC
2013-01-22 00:00:00,12.1,0.5,30.09,WNW,296,18.4,18.4,59,0.00,CLR,,0.00,WeatherDisplay:10.37,2013-01-22 05:00:00,
2013-01-22 00:03:00,12.0,0.0,30.09,WSW,250,19.6,19.6,58,0.00,CLR,,0.00,WeatherDisplay:10.37,2013-01-22 05:03:00,
2013-01-22 00:08:00,11.9,-0.8,30.09,West,281,10.0,21.0,56,0.00,CLR,CLR,0.00,WeatherDisplay:10.37,2013-01-22 05:08:00,
2013-01-22 00:13:00,11.8,-1.3,30.09,WNW,289,9.0,18.0,55,0.00,CLR,CLR,0.00,WeatherDisplay:10.37,2013-01-22 05:13:00,
2013-01-22 00:18:00,11.6,-1.9,30.09,WNW,289,8.0,27.0,54,0.00,CLR,CLR,0.00,WeatherDisplay:10.37,2013-01-22 05:18:00,
2013-01-22 00:23:00,11.4,-1.6,30.09,WNW,285,7.0,18.0,55,0.00,CLR,CLR,0.00,WeatherDisplay:10.37,2013-01-22 05:23:00,
2013-01-22 00:28:00,11.3,-1.8,30.09,WNW,287,3.0,21.0,55,0.00,CLR,CLR,0.00,WeatherDisplay:10.37,2013-01-22 05:28:00,
2013-01-22 00:33:00,11.1,-1.6,30.09,WNW,283,8.0,17.0,56,0.00,CLR,CLR,0.00,WeatherDisplay:10.37,2013-01-22 05:33:00,
2013-01-22 00:38:00,11.0,-1.7,30.09,WNW,290,12.0,21.0,56,0.00,CLR,CLR,0.00,WeatherDisplay:10.37,2013-01-22 05:38:00,
2013-01-22 00:43:00,10.9,-1.7,30.09,WNW,292,8.0,20.0,56,0.00,CLR,CLR,0.00,WeatherDisplay:10.37,2013-01-22 05:43:00,
2013-01-22 00:48:00,10.8,-1.8,30.09,WNW,290,2.0,14.0,56,0.00,CLR,CLR,0.00,WeatherDisplay:10.37,2013-01-22 05:48:00,
2013-01-22 00:53:00,10.7,-1.6,30.09,WNW,296,5.0,13.0,57,0.00,CLR,CLR,0.00,WeatherDisplay:10.37,2013-01-22 05:53:00,
2013-01-22 00:58:00,10.6,-1.7,30.09,WNW,300,6.0,18.0,57,0.00,CLR,CLR,0.00,WeatherDisplay:10.37,2013-01-22 05:58:00,
2013-01-22 01:03:00,10.5,-1.3,30.10,WNW,301,6.0,17.0,58,0.00,CLR,CLR,0.00,WeatherDisplay:10.37,2013-01-22 06:03:00,
2013-01-22 01:08:00,10.6,-0.9,30.09,WNW,287,14.0,25.0,59,0.00,CLR,CLR,0.00,WeatherDisplay:10.37,2013-01-22 06:08:00,
2013-01-22 01:13:00,10.6,-0.9,30.10,WNW,287,9.0,15.0,59,0.00,CLR,CLR,0.00,WeatherDisplay:10.37,2013-01-22 06:13:00,
2013-01-22 01:18:00,10.6,-0.9,30.10,WNW,286,5.0,22.0,59,0.00,CLR,CLR,0.00,WeatherDisplay:10.37,2013-01-22 06:18:00,
2013-01-22 01:23:00,10.5,-1.4,30.10,WNW,290,9.0,17.0,58,0.00,CLR,CLR,0.00,WeatherDisplay:10.37,2013-01-22 06:23:00,
2013-01-22 01:28:00,10.4,-1.5,30.10,WNW,290,6.0,21.0,58,0.00,CLR,CLR,0.00,WeatherDisplay:10.37,2013-01-22 06:28:00,
2013-01-22 01:33:00,10.2,-1.6,30.10,West,269,15.0,21.0,58,0.00,CLR,CLR,0.00,WeatherDisplay:10.37,2013-01-22 06:33:00,
2013-01-22 01:38:00,10.1,-1.4,30.10,West,267,12.0,25.0,59,0.00,CLR,CLR,0.00,WeatherDisplay:10.37,2013-01-22 06:38:00,
2013-01-22 01:43:00,9.9,-1.6,30.11,West,266,15.0,22.0,59,0.00,CLR,CLR,0.00,WeatherDisplay:10.37,2013-01-22 06:43:00,
2013-01-22 01:48:00,9.9,-1.6,30.11,West,269,15.0,23.0,59,0.00,CLR,CLR,0.00,WeatherDisplay:10.37,2013-01-22 06:48:00,
2013-01-22 01:53:00,9.8,-1.7,30.11,West,270,8.0,18.0,59,0.00,CLR,CLR,0.00,WeatherDisplay:10.37,2013-01-22 06:53:00,
2013-01-22 01:58:00,9.6,-1.5,30.11,West,269,14.0,30.0,60,0.00,CLR,CLR,0.00,WeatherDisplay:10.37,2013-01-22 06:58:00,
2013-01-22 02:03:00,9.5,-0.3,30.12,West,274,8.0,18.0,64,0.00,CLR,CLR,0.00,WeatherDisplay:10.37,2013-01-22 07:03:00,
2013-01-22 02:08:00,9.4,-2.1,30.13,West,271,12.0,20.0,59,0.00,CLR,CLR,0.00,WeatherDisplay:10.37,2013-01-22 07:08:00,
2013-01-22 02:13:00,9.3,-2.5,30.13,West,275,9.0,23.0,58,0.00,CLR,CLR,0.00,WeatherDisplay:10.37,2013-01-22 07:13:00,
2013-01-22 02:18:00,9.2,-2.6,30.13,West,278,10.0,21.0,58,0.00,CLR,CLR,0.00,WeatherDisplay:10.37,2013-01-22 07:18:00,
2013-01-22 02:23:00,9.2,-2.6,30.13,West,278,8.0,17.0,58,0.00,CLR,CLR,0.00,WeatherDisplay:10.37,2013-01-22 07:23:00,
2013-01-22 02:28:00,9.2,-2.2,30.13,West,275,13.0,18.0,59,0.00,CLR,CLR,0.00,WeatherDisplay:10.37,2013-01-22 07:28:00,
2013-01-22 02:33:00,9.2,-2.2,30.14,West,266,8.0,16.0,59,0.00,CLR,CLR,0.00,WeatherDisplay:10.37,2013-01-22 07:33:00,
2013-01-22 02:38:00,9.1,-2.4,30.14,West,269,8.0,17.0,59,0.00,CLR,CLR,0.00,WeatherDisplay:10.37,2013-01-22 07:38:00,
2013-01-22 02:43:00,9.0,-2.4,30.14,West,270,10.0,14.0,59,0.00,CLR,CLR,0.00,WeatherDisplay:10.37,2013-01-22 07:43:00,
2013-01-22 02:48:00,9.0,-2.1,30.14,West,281,8.0,18.0,60,0.00,CLR,CLR,0.00,WeatherDisplay:10.37,2013-01-22 07:48:00,
2013-01-22 02:53:00,8.9,-1.8,30.14,West,275,12.0,17.0,61,0.00,CLR,CLR,0.00,WeatherDisplay:10.37,2013-01-22 07:53:00,
2013-01-22 02:59:00,8.9,-1.5,30.14,West,273,9.0,16.0,62,0.00,CLR,CLR,0.00,WeatherDisplay:10.37,2013-01-22 07:59:00,
2013-01-22 03:04:00,8.7,-1.3,30.14,WSW,250,17.0,17.0,63,0.00,CLR,,0.00,WeatherDisplay:10.37,2013-01-22 08:04:00,
2013-01-22 03:09:00,8.7,-1.0,30.14,West,259,16.1,16.1,64,0.00,CLR,,0.00,WeatherDisplay:10.37,2013-01-22 08:09:00,
2013-01-22 03:14:00,8.6,-1.1,30.14,WNW,284,16.1,16.1,64,0.00,CLR,,0.00,WeatherDisplay:10.37,2013-01-22 08:14:00,
2013-01-22 03:19:00,8.6,-1.1,30.14,West,261,12.0,12.0,64,0.00,CLR,,0.00,WeatherDisplay:10.37,2013-01-22 08:19:00,
2013-01-22 03:24:00,8.7,-0.7,30.14,WSW,252,19.6,19.6,65,0.00,CLR,,0.00,WeatherDisplay:10.37,2013-01-22 08:24:00,
2013-01-22 03:29:00,8.7,-0.3,30.14,WSW,256,15.0,15.0,66,0.00,CLR,,0.00,WeatherDisplay:10.37,2013-01-22 08:29:00,
2013-01-22 03:34:00,8.6,-0.4,30.14,West,260,22.0,22.0,66,0.00,CLR,,0.00,WeatherDisplay:10.37,2013-01-22 08:34:00,
2013-01-22 03:39:00,8.6,-0.4,30.14,West,260,23.0,23.0,66,0.00,CLR,,0.00,WeatherDisplay:10.37,2013-01-22 08:39:00,
2013-01-22 03:44:00,8.6,-0.4,30.15,WNW,292,12.0,12.0,66,0.00,CLR,,0.00,WeatherDisplay:10.37,2013-01-22 08:44:00,
2013-01-22 03:49:00,8.5,-0.5,30.15,West,261,12.0,12.0,66,0.00,CLR,,0.00,WeatherDisplay:10.37,2013-01-22 08:49:00,
2013-01-22 03:54:00,8.5,-0.9,30.15,WNW,289,13.0,13.0,65,0.00,CLR,,0.00,WeatherDisplay:10.37,2013-01-22 08:54:00,
2013-01-22 03:59:00,8.6,-0.4,30.15,WSW,256,17.0,17.0,66,0.00,CLR,,0.00,WeatherDisplay:10.37,2013-01-22 08:59:00,
2013-01-22 04:04:00,8.5,-0.9,30.15,West,273,17.3,17.3,65,0.00,CLR,,0.00,WeatherDisplay:10.37,2013-01-22 09:04:00,
2013-01-22 04:09:00,8.4,-1.0,30.15,West,271,13.0,13.0,65,0.00,CLR,,0.00,WeatherDisplay:10.37,2013-01-22 09:09:00,
2013-01-22 04:14:00,8.3,-1.1,30.15,WSW,242,11.5,11.5,65,0.00,CLR,,0.00,WeatherDisplay:10.37,2013-01-22 09:14:00,
2013-01-22 04:19:00,8.2,-1.2,30.15,West,273,16.1,16.1,65,0.00,CLR,,0.00,WeatherDisplay:10.37,2013-01-22 09:19:00,
2013-01-22 04:24:00,8.1,-1.2,30.15,West,270,21.0,21.0,65,0.00,CLR,,0.00,WeatherDisplay:10.37,2013-01-22 09:24:00,
2013-01-22 04:29:00,7.9,-1.4,30.15,WSW,254,14.0,14.0,65,0.00,CLR,,0.00,WeatherDisplay:10.37,2013-01-22 09:29:00,
2013-01-22 04:34:00,7.8,-1.9,30.15,WSW,257,16.0,16.0,64,0.00,CLR,,0.00,WeatherDisplay:10.37,2013-01-22 09:34:00,
2013-01-22 04:39:00,7.6,-1.7,30.15,West,268,15.0,15.0,65,0.00,CLR,,0.00,WeatherDisplay:10.37,2013-01-22 09:39:00,
2013-01-22 04:44:00,7.6,-1.7,30.15,West,263,13.8,13.8,65,0.00,CLR,,0.00,WeatherDisplay:10.37,2013-01-22 09:44:00,
2013-01-22 04:49:00,7.4,-1.9,30.15,WNW,300,15.0,15.0,65,0.00,CLR,,0.00,WeatherDisplay:10.37,2013-01-22 09:49:00,
2013-01-22 04:54:00,7.3,-2.0,30.16,West,264,19.6,19.6,65,0.00,CLR,,0.00,WeatherDisplay:10.37,2013-01-22 09:54:00,
2013-01-22 04:59:00,7.3,-2.0,30.16,West,263,17.3,17.3,65,0.00,CLR,,0.00,WeatherDisplay:10.37,2013-01-22 09:59:00,
2013-01-22 05:04:00,7.2,-2.4,30.16,West,265,12.0,12.0,64,0.00,CLR,,0.00,WeatherDisplay:10.37,2013-01-22 10:04:00,
2013-01-22 05:09:00,7.2,-2.4,30.16,WSW,257,13.8,13.8,64,0.00,CLR,,0.00,WeatherDisplay:10.37,2013-01-22 10:09:00,
2013-01-22 05:14:00,7.1,-2.5,30.16,West,275,23.0,23.0,64,0.00,CLR,,0.00,WeatherDisplay:10.37,2013-01-22 10:14:00,
2013-01-22 05:19:00,7.2,-2.8,30.17,West,270,17.3,17.3,63,0.00,CLR,,0.00,WeatherDisplay:10.37,2013-01-22 10:19:00,
2013-01-22 05:24:00,7.1,-2.9,30.17,WSW,252,12.0,12.0,63,0.00,CLR,,0.00,WeatherDisplay:10.37,2013-01-22 10:24:00,
2013-01-22 05:29:00,7.1,-3.2,30.17,WSW,249,17.3,17.3,62,0.00,CLR,,0.00,WeatherDisplay:10.37,2013-01-22 10:29:00,
2013-01-22 05:34:00,7.1,-2.9,30.17,West,269,17.3,17.3,63,0.00,CLR,,0.00,WeatherDisplay:10.37,2013-01-22 10:34:00,
2013-01-22 05:39:00,7.1,-3.2,30.17,WSW,242,18.4,18.4,62,0.00,CLR,,0.00,WeatherDisplay:10.37,2013-01-22 10:39:00,
2013-01-22 05:44:00,7.0,-3.3,30.17,West,268,19.6,19.6,62,0.00,CLR,,0.00,WeatherDisplay:10.37,2013-01-22 10:44:00,
2013-01-22 05:49:00,7.0,-3.3,30.18,WNW,294,12.7,12.7,62,0.00,CLR,,0.00,WeatherDisplay:10.37,2013-01-22 10:49:00,
2013-01-22 05:54:00,6.9,-3.4,30.18,WNW,283,15.0,15.0,62,0.00,CLR,,0.00,WeatherDisplay:10.37,2013-01-22 10:54:00,
2013-01-22 05:59:00,6.8,-3.5,30.19,West,263,19.6,19.6,62,0.00,CLR,,0.00,WeatherDisplay:10.37,2013-01-22 10:59:00,
2013-01-22 06:04:00,6.8,-3.5,30.19,West,280,20.0,20.0,62,0.00,CLR,,0.00,WeatherDisplay:10.37,2013-01-22 11:04:00,
2013-01-22 06:09:00,6.8,-3.8,30.19,West,280,18.4,18.4,61,0.00,CLR,,0.00,WeatherDisplay:10.37,2013-01-22 11:09:00,
2013-01-22 06:14:00,6.8,-3.8,30.19,WNW,286,20.7,20.7,61,0.00,CLR,,0.00,WeatherDisplay:10.37,2013-01-22 11:14:00,
2013-01-22 06:19:00,6.7,-3.9,30.19,West,266,19.0,19.0,61,0.00,CLR,,0.00,WeatherDisplay:10.37,2013-01-22 11:19:00,
2013-01-22 06:24:00,6.7,-3.6,30.20,West,270,19.6,19.6,62,0.00,CLR,,0.00,WeatherDisplay:10.37,2013-01-22 11:24:00,
2013-01-22 06:29:00,6.7,-3.9,30.20,West,266,14.0,14.0,61,0.00,CLR,,0.00,WeatherDisplay:10.37,2013-01-22 11:29:00,
2013-01-22 06:34:00,6.7,-3.9,30.20,WSW,246,17.3,17.3,61,0.00,CLR,,0.00,WeatherDisplay:10.37,2013-01-22 11:34:00,
2013-01-22 06:39:00,6.7,-3.9,30.20,WNW,296,17.3,17.3,61,0.00,CLR,,0.00,WeatherDisplay:10.37,2013-01-22 11:39:00,
2013-01-22 06:44:00,6.7,-3.9,30.20,West,267,18.4,18.4,61,0.00,CLR,,0.00,WeatherDisplay:10.37,2013-01-22 11:44:00,
2013-01-22 06:49:00,6.6,-4.0,30.20,West,261,16.1,16.1,61,0.00,CLR,,0.00,WeatherDisplay:10.37,2013-01-22 11:49:00,
2013-01-22 06:54:00,6.6,-4.0,30.20,West,269,13.0,13.0,61,0.00,CLR,,0.00,WeatherDisplay:10.37,2013-01-22 11:54:00,
2013-01-22 06:59:00,6.5,-4.1,30.20,West,259,23.0,23.0,61,0.00,CLR,,0.00,WeatherDisplay:10.37,2013-01-22 11:59:00,
2013-01-22 07:04:00,6.6,-4.0,30.21,WSW,254,16.1,16.1,61,0.00,CLR,,0.00,WeatherDisplay:10.37,2013-01-22 12:04:00,
2013-01-22 07:09:00,6.5,-3.8,30.21,West,267,13.0,13.0,62,0.00,CLR,,0.00,WeatherDisplay:10.37,2013-01-22 12:09:00,
2013-01-22 07:14:00,6.5,-3.8,30.21,WSW,256,17.3,17.3,62,0.00,CLR,,0.00,WeatherDisplay:10.37,2013-01-22 12:14:00,
2013-01-22 07:19:00,6.4,-3.9,30.21,WNW,294,17.3,17.3,62,0.00,CLR,,0.00,WeatherDisplay:10.37,2013-01-22 12:19:00,
2013-01-22 07:24:00,6.5,-3.8,30.21,WSW,253,18.4,18.4,62,0.00,CLR,,0.00,WeatherDisplay:10.37,2013-01-22 12:24:00,
2013-01-22 07:29:00,6.4,-3.5,30.21,WSW,241,19.6,19.6,63,0.00,CLR,,0.00,WeatherDisplay:10.37,2013-01-22 12:29:00,
2013-01-22 07:34:00,6.4,-3.5,30.22,West,269,17.0,17.0,63,0.00,CLR,,0.00,WeatherDisplay:10.37,2013-01-22 12:34:00,
2013-01-22 07:39:00,6.5,-3.4,30.22,West,260,22.0,22.0,63,0.00,CLR,,0.00,WeatherDisplay:10.37,2013-01-22 12:39:00,
2013-01-22 07:44:00,6.4,-3.5,30.22,West,261,19.6,19.6,63,0.00,CLR,,0.00,WeatherDisplay:10.37,2013-01-22 12:44:00,
2013-01-22 07:49:00,6.5,-3.4,30.22,WSW,256,20.0,20.0,63,0.00,CLR,,0.00,WeatherDisplay:10.37,2013-01-22 12:49:00,
2013-01-22 07:54:00,6.5,-3.4,30.23,WNW,288,18.4,18.4,63,0.00,CLR,,0.00,WeatherDisplay:10.37,2013-01-22 12:54:00,
2013-01-22 07:59:00,6.5,-3.4,30.23,WSW,252,18.4,18.4,63,0.00,CLR,,0.00,WeatherDisplay:10.37,2013-01-22 12:59:00,
2013-01-22 08:04:00,6.6,-3.3,30.23,WNW,288,14.0,14.0,63,0.00,CLR,,0.00,WeatherDisplay:10.37,2013-01-22 13:04:00,
2013-01-22 08:09:00,6.7,-3.2,30.24,West,271,20.0,20.0,63,0.00,CLR,,0.00,WeatherDisplay:10.37,2013-01-22 13:09:00,
2013-01-22 08:14:00,6.8,-3.1,30.24,WNW,291,15.0,15.0,63,0.00,CLR,,0.00,WeatherDisplay:10.37,2013-01-22 13:14:00,
2013-01-22 08:19:00,6.9,-3.4,30.24,West,265,17.3,17.3,62,0.00,CLR,,0.00,WeatherDisplay:10.37,2013-01-22 13:19:00,
2013-01-22 08:24:00,7.1,-2.9,30.24,West,264,18.4,18.4,63,0.00,CLR,,0.00,WeatherDisplay:10.37,2013-01-22 13:24:00,
2013-01-22 08:29:00,7.2,-2.8,30.25,WSW,257,19.0,19.0,63,0.00,CLR,,0.00,WeatherDisplay:10.37,2013-01-22 13:29:00,
2013-01-22 08:34:00,7.1,-2.9,30.25,West,261,19.6,19.6,63,0.00,CLR,,0.00,WeatherDisplay:10.37,2013-01-22 13:34:00,
2013-01-22 08:39:00,7.4,-2.6,30.25,West,275,16.1,16.1,63,0.00,CLR,,0.00,WeatherDisplay:10.37,2013-01-22 13:39:00,
2013-01-22 08:44:00,7.4,-2.6,30.25,West,278,19.6,19.6,63,0.00,CLR,,0.00,WeatherDisplay:10.37,2013-01-22 13:44:00,
2013-01-22 08:49:00,7.7,-2.3,30.25,WSW,248,20.0,20.0,63,0.00,CLR,,0.00,WeatherDisplay:10.37,2013-01-22 13:49:00,
2013-01-22 08:54:00,7.6,-2.7,30.25,West,263,13.0,13.0,62,0.00,CLR,,0.00,WeatherDisplay:10.37,2013-01-22 13:54:00,
2013-01-22 08:59:00,7.6,-2.7,30.26,WSW,245,14.0,14.0,62,0.00,CLR,,0.00,WeatherDisplay:10.37,2013-01-22 13:59:00,
2013-01-22 09:04:00,7.9,-2.1,30.26,West,264,11.5,11.5,63,0.00,CLR,,0.00,WeatherDisplay:10.37,2013-01-22 14:04:00,
2013-01-22 09:09:00,8.1,-2.2,30.26,WSW,258,26.5,26.5,62,0.00,CLR,,0.00,WeatherDisplay:10.37,2013-01-22 14:09:00,
2013-01-22 09:14:00,7.9,-2.8,30.26,West,261,17.3,17.3,61,0.00,CLR,,0.00,WeatherDisplay:10.37,2013-01-22 14:14:00,
2013-01-22 09:19:00,8.0,-2.7,30.26,West,281,20.0,20.0,61,0.00,CLR,,0.00,WeatherDisplay:10.37,2013-01-22 14:19:00,
2013-01-22 09:24:00,8.4,-2.3,30.26,WSW,250,19.6,19.6,61,0.00,CLR,,0.00,WeatherDisplay:10.37,2013-01-22 14:24:00,
2013-01-22 09:29:00,8.6,-2.1,30.26,WSW,253,20.0,20.0,61,0.00,CLR,,0.00,WeatherDisplay:10.37,2013-01-22 14:29:00,
2013-01-22 09:34:00,8.7,-2.0,30.26,WSW,258,22.0,22.0,61,0.00,CLR,,0.00,WeatherDisplay:10.37,2013-01-22 14:34:00,
2013-01-22 09:39:00,9.2,-1.9,30.27,West,277,14.0,14.0,60,0.00,CLR,,0.00,WeatherDisplay:10.37,2013-01-22 14:39:00,
2013-01-22 09:44:00,8.9,-2.2,30.27,NW,306,19.6,19.6,60,0.00,CLR,,0.00,WeatherDisplay:10.37,2013-01-22 14:44:00,
2013-01-22 09:49:00,8.9,-2.2,30.27,West,259,20.0,20.0,60,0.00,CLR,,0.00,WeatherDisplay:10.37,2013-01-22 14:49:00,
2013-01-22 09:54:00,9.1,-2.0,30.27,WSW,257,22.0,22.0,60,0.00,CLR,,0.00,WeatherDisplay:10.37,2013-01-22 14:54:00,
2013-01-22 09:59:00,9.1,-2.3,30.27,West,264,19.6,19.6,59,0.00,CLR,,0.00,WeatherDisplay:10.37,2013-01-22 14:59:00,
2013-01-22 10:04:00,9.1,-2.3,30.27,West,277,19.6,19.6,59,0.00,CLR,,0.00,WeatherDisplay:10.37,2013-01-22 15:04:00,
2013-01-22 10:09:00,8.7,-2.7,30.27,WSW,251,9.2,9.2,59,0.00,CLR,,0.00,WeatherDisplay:10.37,2013-01-22 15:09:00,
2013-01-22 10:14:00,8.8,-3.0,30.28,WNW,286,6.0,6.0,58,0.00,CLR,,0.00,WeatherDisplay:10.37,2013-01-22 15:14:00,
2013-01-22 10:19:00,9.6,-1.5,30.27,WSW,254,18.4,18.4,60,0.00,CLR,,0.00,WeatherDisplay:10.37,2013-01-22 15:19:00,
2013-01-22 10:24:00,9.9,-1.2,30.28,WSW,242,17.3,17.3,60,0.00,CLR,,0.00,WeatherDisplay:10.37,2013-01-22 15:24:00,
2013-01-22 10:29:00,10.0,-1.1,30.28,WSW,240,18.0,18.0,60,0.00,CLR,,0.00,WeatherDisplay:10.37,2013-01-22 15:29:00,
2013-01-22 10:34:00,10.3,-1.2,30.28,WNW,288,12.7,12.7,59,0.00,CLR,,0.00,WeatherDisplay:10.37,2013-01-22 15:34:00,
2013-01-22 10:39:00,10.6,-1.3,30.28,West,259,19.6,19.6,58,0.00,CLR,,0.00,WeatherDisplay:10.37,2013-01-22 15:39:00,
2013-01-22 10:44:00,10.5,-1.4,30.28,WSW,244,19.6,19.6,58,0.00,CLR,,0.00,WeatherDisplay:10.37,2013-01-22 15:44:00,
2013-01-22 10:49:00,10.2,-1.7,30.28,WSW,242,19.6,19.6,58,0.00,CLR,,0.00,WeatherDisplay:10.37,2013-01-22 15:49:00,
2013-01-22 10:55:00,10.4,-1.8,30.28,WSW,246,24.2,24.2,57,0.00,CLR,,0.00,WeatherDisplay:10.37,2013-01-22 15:55:00,
2013-01-22 11:00:00,9.9,-3.1,30.28,West,269,21.0,21.0,55,0.00,CLR,,0.00,WeatherDisplay:10.37,2013-01-22 16:00:00,
2013-01-22 11:05:00,9.9,-3.1,30.28,West,280,25.3,25.3,55,0.00,CLR,,0.00,WeatherDisplay:10.37,2013-01-22 16:05:00,
2013-01-22 11:10:00,9.9,-3.1,30.28,NW,309,19.0,19.0,55,0.00,CLR,,0.00,WeatherDisplay:10.37,2013-01-22 16:10:00,
2013-01-22 11:15:00,10.5,-2.1,30.28,West,264,22.0,22.0,56,0.00,CLR,,0.00,WeatherDisplay:10.37,2013-01-22 16:15:00,
2013-01-22 11:20:00,11.4,-1.7,30.27,WSW,238,24.0,24.0,55,0.00,CLR,,0.00,WeatherDisplay:10.37,2013-01-22 16:20:00,
2013-01-22 11:25:00,11.8,-1.7,30.28,WSW,243,24.2,24.2,54,0.00,CLR,,0.00,WeatherDisplay:10.37,2013-01-22 16:25:00,
2013-01-22 11:30:00,11.5,-2.0,30.28,West,269,25.0,25.0,54,0.00,CLR,,0.00,WeatherDisplay:10.37,2013-01-22 16:30:00,
2013-01-22 11:35:00,11.5,-2.0,30.27,WSW,252,19.6,19.6,54,0.00,CLR,,0.00,WeatherDisplay:10.37,2013-01-22 16:35:00,
2013-01-22 11:40:00,12.2,-1.3,30.27,SW,221,21.9,21.9,54,0.00,CLR,,0.00,WeatherDisplay:10.37,2013-01-22 16:40:00,
2013-01-22 11:45:00,12.6,-0.9,30.27,WSW,250,15.0,15.0,54,0.00,CLR,,0.00,WeatherDisplay:10.37,2013-01-22 16:45:00,
2013-01-22 11:50:00,12.8,-0.3,30.27,WSW,257,20.0,20.0,55,0.00,CLR,,0.00,WeatherDisplay:10.37,2013-01-22 16:50:00,
2013-01-22 11:55:00,12.2,-2.1,30.27,West,263,6.0,6.0,52,0.00,CLR,,0.00,WeatherDisplay:10.37,2013-01-22 16:55:00,
2013-01-22 12:00:00,11.0,-3.2,30.27,NW,317,7.0,7.0,52,0.00,CLR,,0.00,WeatherDisplay:10.37,2013-01-22 17:00:00,
2013-01-22 12:05:00,11.8,-2.1,30.27,West,259,18.0,18.0,53,0.00,CLR,,0.00,WeatherDisplay:10.37,2013-01-22 17:05:00,
2013-01-22 12:10:00,11.7,-2.6,30.26,West,268,20.0,20.0,52,0.00,CLR,,0.00,WeatherDisplay:10.37,2013-01-22 17:10:00,
2013-01-22 12:15:00,11.1,-3.5,30.26,NW,306,16.0,16.0,51,0.00,CLR,,0.00,WeatherDisplay:10.37,2013-01-22 17:15:00,
2013-01-22 12:20:00,10.5,-4.5,30.26,WNW,286,13.0,13.0,50,0.00,CLR,,0.00,WeatherDisplay:10.37,2013-01-22 17:20:00,
2013-01-22 12:25:00,10.5,-4.1,30.26,NW,304,9.0,9.0,51,0.00,CLR,,0.00,WeatherDisplay:10.37,2013-01-22 17:25:00,
2013-01-22 12:30:00,10.9,-4.1,30.26,NW,326,16.0,16.0,50,0.00,CLR,,0.00,WeatherDisplay:10.37,2013-01-22 17:30:00,
2013-01-22 12:35:00,11.6,-2.3,30.26,WNW,298,11.5,11.5,53,0.00,CLR,,0.00,WeatherDisplay:10.37,2013-01-22 17:35:00,
2013-01-22 12:40:00,12.2,-2.5,30.26,WNW,289,17.0,17.0,51,0.00,CLR,,0.00,WeatherDisplay:10.37,2013-01-22 17:40:00,
2013-01-22 12:45:00,12.0,-2.3,30.26,WNW,283,15.0,15.0,52,0.00,CLR,,0.00,WeatherDisplay:10.37,2013-01-22 17:45:00,
2013-01-22 12:50:00,12.3,-1.2,30.25,WSW,241,21.0,21.0,54,0.00,CLR,,0.00,WeatherDisplay:10.37,2013-01-22 17:50:00,
2013-01-22 12:55:00,11.8,-2.9,30.26,West,266,16.0,16.0,51,0.00,CLR,,0.00,WeatherDisplay:10.37,2013-01-22 17:55:00,
2013-01-22 13:00:00,11.1,-3.9,30.26,SW,222,12.0,12.0,50,0.00,CLR,,0.00,WeatherDisplay:10.37,2013-01-22 18:00:00,
2013-01-22 13:05:00,11.1,-3.1,30.26,WNW,300,14.0,14.0,52,0.00,CLR,,0.00,WeatherDisplay:10.37,2013-01-22 18:05:00,
2013-01-22 13:10:00,11.7,-1.4,30.25,West,261,19.6,19.6,55,0.00,CLR,,0.00,WeatherDisplay:10.37,2013-01-22 18:10:00,
2013-01-22 13:15:00,12.8,-0.7,30.25,WSW,257,17.3,17.3,54,0.00,CLR,,0.00,WeatherDisplay:10.37,2013-01-22 18:15:00,
2013-01-22 13:20:00,12.0,-1.1,30.25,West,263,15.0,15.0,55,0.00,CLR,,0.00,WeatherDisplay:10.37,2013-01-22 18:20:00,
2013-01-22 13:25:00,11.7,-1.8,30.25,NW,306,8.0,8.0,54,0.00,CLR,,0.00,WeatherDisplay:10.37,2013-01-22 18:25:00,
2013-01-22 13:30:00,11.2,-2.2,30.26,WNW,287,13.0,13.0,54,0.00,CLR,,0.00,WeatherDisplay:10.37,2013-01-22 18:30:00,
2013-01-22 13:35:00,10.7,-1.9,30.26,NW,311,13.8,13.8,56,0.00,CLR,,0.00,WeatherDisplay:10.37,2013-01-22 18:35:00,
2013-01-22 13:40:00,10.5,-1.4,30.25,West,275,5.0,5.0,58,0.00,CLR,,0.00,WeatherDisplay:10.37,2013-01-22 18:40:00,
2013-01-22 13:45:00,11.6,-0.7,30.25,West,259,17.0,17.0,57,0.00,CLR,,0.00,WeatherDisplay:10.37,2013-01-22 18:45:00,
2013-01-22 13:50:00,12.0,-1.1,30.25,WSW,245,26.5,26.5,55,0.00,CLR,,0.00,WeatherDisplay:10.37,2013-01-22 18:50:00,
2013-01-22 13:55:00,13.0,-0.2,30.25,WNW,294,22.0,22.0,55,0.00,CLR,,0.00,WeatherDisplay:10.37,2013-01-22 18:55:00,
2013-01-22 14:00:00,12.7,-0.8,30.25,WSW,246,17.0,17.0,54,0.00,CLR,,0.00,WeatherDisplay:10.37,2013-01-22 19:00:00,
2013-01-22 14:05:00,12.4,-1.9,30.26,WNW,298,11.0,11.0,52,0.00,CLR,,0.00,WeatherDisplay:10.37,2013-01-22 19:05:00,
2013-01-22 14:10:00,11.7,-2.2,30.25,NNW,346,9.2,9.2,53,0.00,CLR,,0.00,WeatherDisplay:10.37,2013-01-22 19:10:00,
2013-01-22 14:15:00,12.0,-1.1,30.25,NNW,347,9.2,9.2,55,0.00,CLR,,0.00,WeatherDisplay:10.37,2013-01-22 19:15:00,
2013-01-22 14:20:00,12.7,-0.4,30.25,WNW,286,6.0,6.0,55,0.00,CLR,,0.00,WeatherDisplay:10.37,2013-01-22 19:20:00,
2013-01-22 14:25:00,15.1,0.6,30.25,WNW,302,17.3,17.3,52,0.00,CLR,,0.00,WeatherDisplay:10.37,2013-01-22 19:25:00,
2013-01-22 14:30:00,15.5,-1.2,30.25,WSW,244,23.0,23.0,47,0.00,CLR,,0.00,WeatherDisplay:10.37,2013-01-22 19:30:00,
2013-01-22 14:35:00,14.8,-0.9,30.25,WSW,240,21.9,21.9,49,0.00,CLR,,0.00,WeatherDisplay:10.37,2013-01-22 19:35:00,
2013-01-22 14:40:00,14.3,-1.0,30.26,West,263,21.9,21.9,50,0.00,CLR,,0.00,WeatherDisplay:10.37,2013-01-22 19:40:00,
2013-01-22 14:45:00,13.1,-1.7,30.26,West,281,13.0,13.0,51,0.00,CLR,,0.00,WeatherDisplay:10.37,2013-01-22 19:45:00,
2013-01-22 14:50:00,12.8,-0.3,30.26,NW,311,9.0,9.0,55,0.00,CLR,,0.00,WeatherDisplay:10.37,2013-01-22 19:50:00,
2013-01-22 14:55:00,12.5,-0.2,30.25,NW,324,7.0,7.0,56,0.00,CLR,,0.00,WeatherDisplay:10.37,2013-01-22 19:55:00,
2013-01-22 15:00:00,11.9,-1.6,30.25,NNW,331,8.1,8.1,54,0.00,CLR,,0.00,WeatherDisplay:10.37,2013-01-22 20:00:00,
2013-01-22 15:05:00,12.5,-1.0,30.25,NNW,331,6.0,6.0,54,0.00,CLR,,0.00,WeatherDisplay:10.37,2013-01-22 20:05:00,
2013-01-22 15:10:00,12.7,-1.2,30.26,NW,325,5.0,5.0,53,0.00,CLR,,0.00,WeatherDisplay:10.37,2013-01-22 20:10:00,
2013-01-22 15:15:00,13.4,-0.6,30.26,NNW,329,10.4,10.4,53,0.00,CLR,,0.00,WeatherDisplay:10.37,2013-01-22 20:15:00,
2013-01-22 15:20:00,12.5,-1.0,30.26,NW,326,7.0,7.0,54,0.00,CLR,,0.00,WeatherDisplay:10.37,2013-01-22 20:20:00,
2013-01-22 15:25:00,12.1,-1.0,30.26,North,351,6.0,6.0,55,0.00,CLR,,0.00,WeatherDisplay:10.37,2013-01-22 20:25:00,
2013-01-22 15:30:00,12.5,-0.6,30.26,NNW,327,5.8,5.8,55,0.00,CLR,,0.00,WeatherDisplay:10.37,2013-01-22 20:30:00,
2013-01-22 15:35:00,12.6,-0.9,30.26,NNW,337,4.0,4.0,54,0.00,CLR,,0.00,WeatherDisplay:10.37,2013-01-22 20:35:00,
2013-01-22 15:40:00,13.2,-0.8,30.26,NW,321,18.4,18.4,53,0.00,CLR,,0.00,WeatherDisplay:10.37,2013-01-22 20:40:00,
2013-01-22 15:45:00,12.5,-2.6,30.26,WSW,257,12.0,12.0,50,0.00,CLR,,0.00,WeatherDisplay:10.37,2013-01-22 20:45:00,
2013-01-22 15:50:00,12.3,-2.4,30.27,WNW,284,12.0,12.0,51,0.00,CLR,,0.00,WeatherDisplay:10.37,2013-01-22 20:50:00,
2013-01-22 15:55:00,11.7,-2.6,30.27,SW,236,14.0,14.0,52,0.00,CLR,,0.00,WeatherDisplay:10.37,2013-01-22 20:55:00,
2013-01-22 16:00:00,12.2,-1.7,30.27,WNW,294,18.4,18.4,53,0.00,CLR,,0.00,WeatherDisplay:10.37,2013-01-22 21:00:00,
2013-01-22 16:05:00,12.1,-1.8,30.27,West,269,14.0,14.0,53,0.00,CLR,,0.00,WeatherDisplay:10.37,2013-01-22 21:05:00,
2013-01-22 16:10:00,11.8,-2.5,30.27,West,263,14.0,14.0,52,0.00,CLR,,0.00,WeatherDisplay:10.37,2013-01-22 21:10:00,
2013-01-22 16:15:00,11.8,-2.5,30.27,NW,307,9.2,9.2,52,0.00,CLR,,0.00,WeatherDisplay:10.37,2013-01-22 21:15:00,
2013-01-22 16:20:00,11.9,-2.0,30.27,WSW,258,10.4,10.4,53,0.00,CLR,,0.00,WeatherDisplay:10.37,2013-01-22 21:20:00,
2013-01-22 16:25:00,12.7,-0.8,30.27,WSW,241,14.0,14.0,54,0.00,CLR,,0.00,WeatherDisplay:10.37,2013-01-22 21:25:00,
2013-01-22 16:30:00,12.8,-1.5,30.27,WSW,256,16.1,16.1,52,0.00,CLR,,0.00,WeatherDisplay:10.37,2013-01-22 21:30:00,
2013-01-22 16:33:00,12.6,-1.7,30.28,WSW,242,22.0,22.0,52,0.00,CLR,,0.00,WeatherDisplay:10.37,2013-01-22 21:33:00,
2013-01-22 16:38:00,12.4,-1.5,30.28,West,261,20.0,20.0,53,0.00,CLR,,0.00,WeatherDisplay:10.37,2013-01-22 21:38:00,
2013-01-22 16:43:00,12.1,-1.8,30.28,West,269,20.0,20.0,53,0.00,CLR,,0.00,WeatherDisplay:10.37,2013-01-22 21:43:00,
2013-01-22 16:48:00,11.8,-2.1,30.28,NNW,327,18.4,18.4,53,0.00,CLR,,0.00,WeatherDisplay:10.37,2013-01-22 21:48:00,
2013-01-22 16:53:00,11.5,-2.0,30.28,WNW,299,6.0,6.0,54,0.00,CLR,,0.00,WeatherDisplay:10.37,2013-01-22 21:53:00,
2013-01-22 16:58:00,11.5,-1.6,30.28,WNW,288,3.5,3.5,55,0.00,CLR,,0.00,WeatherDisplay:10.37,2013-01-22 21:58:00,
2013-01-22 17:03:00,11.3,-1.4,30.29,West,261,17.0,17.0,56,0.00,CLR,,0.00,WeatherDisplay:10.37,2013-01-22 22:03:00,
2013-01-22 17:08:00,11.3,-2.9,30.29,West,264,23.0,23.0,52,0.00,CLR,,0.00,WeatherDisplay:10.37,2013-01-22 22:08:00,
2013-01-22 17:13:00,11.1,-3.1,30.29,West,267,14.0,14.0,52,0.00,CLR,,0.00,WeatherDisplay:10.37,2013-01-22 22:13:00,
2013-01-22 17:18:00,11.0,-3.2,30.29,WNW,301,11.5,11.5,52,0.00,CLR,,0.00,WeatherDisplay:10.37,2013-01-22 22:18:00,
2013-01-22 17:23:00,10.9,-2.1,30.30,NW,305,5.0,5.0,55,0.00,CLR,,0.00,WeatherDisplay:10.37,2013-01-22 22:23:00,
2013-01-22 17:28:00,10.6,-1.7,30.30,WNW,292,5.0,5.0,57,0.00,CLR,,0.00,WeatherDisplay:10.37,2013-01-22 22:28:00,
2013-01-22 17:33:00,10.4,-1.8,30.30,WNW,292,12.0,12.0,57,0.00,CLR,,0.00,WeatherDisplay:10.37,2013-01-22 22:33:00,
2013-01-22 17:38:00,10.3,-1.6,30.30,West,275,7.0,7.0,58,0.00,CLR,,0.00,WeatherDisplay:10.37,2013-01-22 22:38:00,
2013-01-22 17:43:00,10.2,-2.0,30.30,WNW,287,8.1,8.1,57,0.00,CLR,,0.00,WeatherDisplay:10.37,2013-01-22 22:43:00,
2013-01-22 17:48:00,10.1,-2.1,30.30,WNW,301,8.0,8.0,57,0.00,CLR,,0.00,WeatherDisplay:10.37,2013-01-22 22:48:00,
2013-01-22 17:53:00,10.1,-2.1,30.30,WNW,285,3.5,3.5,57,0.00,CLR,,0.00,WeatherDisplay:10.37,2013-01-22 22:53:00,
2013-01-22 17:58:00,10.1,-2.1,30.30,WNW,297,14.0,14.0,57,0.00,CLR,,0.00,WeatherDisplay:10.37,2013-01-22 22:58:00,
2013-01-22 18:03:00,10.1,-1.8,30.30,West,281,10.0,10.0,58,0.00,CLR,,0.00,WeatherDisplay:10.37,2013-01-22 23:03:00,
2013-01-22 18:08:00,10.1,-1.8,30.30,WNW,299,9.0,9.0,58,0.00,CLR,,0.00,WeatherDisplay:10.37,2013-01-22 23:08:00,
2013-01-22 18:13:00,10.0,-2.2,30.30,WNW,296,6.0,6.0,57,0.00,CLR,,0.00,WeatherDisplay:10.37,2013-01-22 23:13:00,
2013-01-22 18:18:00,9.9,-1.9,30.30,WNW,297,5.0,5.0,58,0.00,CLR,,0.00,WeatherDisplay:10.37,2013-01-22 23:18:00,
2013-01-22 18:23:00,9.9,-1.9,30.30,NW,305,7.0,7.0,58,0.00,CLR,,0.00,WeatherDisplay:10.37,2013-01-22 23:23:00,
2013-01-22 18:28:00,9.9,-1.9,30.30,WNW,290,7.0,7.0,58,0.00,CLR,,0.00,WeatherDisplay:10.37,2013-01-22 23:28:00,
2013-01-22 18:33:00,9.9,-1.9,30.30,WNW,294,4.0,4.0,58,0.00,CLR,,0.00,WeatherDisplay:10.37,2013-01-22 23:33:00,
2013-01-22 18:38:00,9.8,-2.0,30.30,NW,306,9.2,9.2,58,0.00,CLR,,0.00,WeatherDisplay:10.37,2013-01-22 23:38:00,
2013-01-22 18:43:00,9.6,-1.9,30.30,West,277,3.5,3.5,59,0.00,CLR,,0.00,WeatherDisplay:10.37,2013-01-22 23:43:00,
2013-01-22 18:48:00,9.5,-2.0,30.31,WSW,240,12.0,12.0,59,0.00,CLR,,0.00,WeatherDisplay:10.37,2013-01-22 23:48:00,
2013-01-22 18:53:00,9.5,-2.0,30.31,West,263,8.1,8.1,59,0.00,CLR,,0.00,WeatherDisplay:10.37,2013-01-22 23:53:00,
2013-01-22 18:58:00,9.5,-2.0,30.31,WNW,295,3.5,3.5,59,0.00,CLR,,0.00,WeatherDisplay:10.37,2013-01-22 23:58:00,
2013-01-22 19:03:00,9.4,-2.1,30.31,West,274,9.2,9.2,59,0.00,CLR,,0.00,WeatherDisplay:10.37,2013-01-23 00:03:00,
2013-01-22 19:08:00,9.4,-2.1,30.32,West,273,8.1,8.1,59,0.00,CLR,,0.00,WeatherDisplay:10.37,2013-01-23 00:08:00,
2013-01-22 19:13:00,9.4,-2.1,30.32,West,269,8.0,8.0,59,0.00,CLR,,0.00,WeatherDisplay:10.37,2013-01-23 00:13:00,
2013-01-22 19:18:00,9.4,-2.1,30.32,NW,304,4.6,4.6,59,0.00,CLR,,0.00,WeatherDisplay:10.37,2013-01-23 00:18:00,
2013-01-22 19:23:00,9.3,-2.2,30.32,WNW,302,6.0,6.0,59,0.00,CLR,,0.00,WeatherDisplay:10.37,2013-01-23 00:23:00,
2013-01-22 19:28:00,9.3,-2.2,30.32,WNW,286,8.1,8.1,59,0.00,CLR,,0.00,WeatherDisplay:10.37,2013-01-23 00:28:00,
2013-01-22 19:33:00,9.3,-2.2,30.32,WNW,302,2.3,2.3,59,0.00,CLR,,0.00,WeatherDisplay:10.37,2013-01-23 00:33:00,
2013-01-22 19:38:00,9.2,-2.2,30.32,NW,304,3.5,3.5,59,0.00,CLR,,0.00,WeatherDisplay:10.37,2013-01-23 00:38:00,
2013-01-22 19:43:00,9.2,-2.2,30.32,West,277,7.0,7.0,59,0.00,CLR,,0.00,WeatherDisplay:10.37,2013-01-23 00:43:00,
2013-01-22 19:48:00,9.2,-1.9,30.32,WNW,294,11.5,11.5,60,0.00,CLR,,0.00,WeatherDisplay:10.37,2013-01-23 00:48:00,
2013-01-22 19:53:00,9.1,-2.0,30.32,West,265,8.1,8.1,60,0.00,CLR,,0.00,WeatherDisplay:10.37,2013-01-23 00:53:00,
2013-01-22 19:58:00,9.0,-2.1,30.32,WNW,284,9.2,9.2,60,0.00,CLR,,0.00,WeatherDisplay:10.37,2013-01-23 00:58:00,
2013-01-22 20:03:00,9.0,-2.1,30.32,West,269,7.0,7.0,60,0.00,CLR,,0.00,WeatherDisplay:10.37,2013-01-23 01:03:00,
2013-01-22 20:08:00,9.0,-2.1,30.32,West,277,8.0,8.0,60,0.00,CLR,,0.00,WeatherDisplay:10.37,2013-01-23 01:08:00,
2013-01-22 20:13:00,8.9,-2.2,30.32,WNW,296,8.0,8.0,60,0.00,CLR,,0.00,WeatherDisplay:10.37,2013-01-23 01:13:00,
2013-01-22 20:18:00,8.9,-2.2,30.32,WNW,300,6.0,6.0,60,0.00,CLR,,0.00,WeatherDisplay:10.37,2013-01-23 01:18:00,
2013-01-22 20:23:00,8.8,-2.3,30.32,NW,307,8.1,8.1,60,0.00,CLR,,0.00,WeatherDisplay:10.37,2013-01-23 01:23:00,
2013-01-22 20:28:00,8.7,-2.4,30.32,West,281,3.5,3.5,60,0.00,CLR,,0.00,WeatherDisplay:10.37,2013-01-23 01:28:00,
2013-01-22 20:33:00,8.6,-2.1,30.32,West,277,5.0,5.0,61,0.00,CLR,,0.00,WeatherDisplay:10.37,2013-01-23 01:33:00,
2013-01-22 20:38:00,8.6,-2.1,30.32,WSW,256,3.5,3.5,61,0.00,CLR,,0.00,WeatherDisplay:10.37,2013-01-23 01:38:00,
2013-01-22 20:43:00,8.5,-2.2,30.32,West,268,4.6,4.6,61,0.00,CLR,,0.00,WeatherDisplay:10.37,2013-01-23 01:43:00,
2013-01-22 20:48:00,8.5,-2.2,30.32,West,273,2.0,2.0,61,0.00,CLR,,0.00,WeatherDisplay:10.37,2013-01-23 01:48:00,
2013-01-22 20:53:00,8.4,-2.3,30.32,West,263,5.0,5.0,61,0.00,CLR,,0.00,WeatherDisplay:10.37,2013-01-23 01:53:00,
2013-01-22 20:58:00,8.3,-2.4,30.32,WNW,299,5.0,5.0,61,0.00,CLR,,0.00,WeatherDisplay:10.37,2013-01-23 01:58:00,
2013-01-22 21:03:00,8.3,-2.4,30.32,West,262,4.0,4.0,61,0.00,CLR,,0.00,WeatherDisplay:10.37,2013-01-23 02:03:00,
2013-01-22 21:08:00,8.3,-2.1,30.32,West,275,3.5,3.5,62,0.00,CLR,,0.00,WeatherDisplay:10.37,2013-01-23 02:08:00,
2013-01-22 21:13:00,8.1,-2.2,30.33,West,267,2.3,2.3,62,0.00,CLR,,0.00,WeatherDisplay:10.37,2013-01-23 02:13:00,
2013-01-22 21:18:00,8.1,-2.2,30.33,West,276,9.0,9.0,62,0.00,CLR,,0.00,WeatherDisplay:10.37,2013-01-23 02:18:00,
2013-01-22 21:24:00,8.2,-2.2,30.33,West,267,6.0,6.0,62,0.00,CLR,,0.00,WeatherDisplay:10.37,2013-01-23 02:24:00,
2013-01-22 21:29:00,8.1,-2.2,30.32,WSW,243,5.0,5.0,62,0.00,CLR,,0.00,WeatherDisplay:10.37,2013-01-23 02:29:00,
2013-01-22 21:34:00,8.1,-1.9,30.32,West,263,4.0,4.0,63,0.00,CLR,,0.00,WeatherDisplay:10.37,2013-01-23 02:34:00,
2013-01-22 21:39:00,8.0,-2.0,30.32,West,264,4.0,4.0,63,0.00,CLR,,0.00,WeatherDisplay:10.37,2013-01-23 02:39:00,
2013-01-22 21:44:00,7.8,-2.2,30.32,WSW,250,5.0,5.0,63,0.00,CLR,,0.00,WeatherDisplay:10.37,2013-01-23 02:44:00,
2013-01-22 21:49:00,7.9,-2.1,30.32,West,261,4.0,4.0,63,0.00,CLR,,0.00,WeatherDisplay:10.37,2013-01-23 02:49:00,
2013-01-22 21:54:00,8.0,-2.0,30.32,WSW,257,3.5,3.5,63,0.00,CLR,,0.00,WeatherDisplay:10.37,2013-01-23 02:54:00,
2013-01-22 21:59:00,7.8,-1.9,30.32,WSW,252,3.5,3.5,64,0.00,CLR,,0.00,WeatherDisplay:10.37,2013-01-23 02:59:00,
2013-01-22 22:04:00,7.7,-2.0,30.33,West,261,3.5,3.5,64,0.00,CLR,,0.00,WeatherDisplay:10.37,2013-01-23 03:04:00,
2013-01-22 22:09:00,7.6,-2.1,30.33,West,260,4.0,4.0,64,0.00,CLR,,0.00,WeatherDisplay:10.37,2013-01-23 03:09:00,
2013-01-22 22:14:00,7.7,-2.0,30.33,WSW,255,4.0,4.0,64,0.00,CLR,,0.00,WeatherDisplay:10.37,2013-01-23 03:14:00,
2013-01-22 22:19:00,7.8,-1.9,30.33,WSW,245,3.5,3.5,64,0.00,CLR,,0.00,WeatherDisplay:10.37,2013-01-23 03:19:00,
2013-01-22 22:24:00,7.7,-2.0,30.33,West,259,5.0,5.0,64,0.00,CLR,,0.00,WeatherDisplay:10.37,2013-01-23 03:24:00,
2013-01-22 22:29:00,7.9,-1.4,30.33,WSW,240,5.0,5.0,65,0.00,CLR,,0.00,WeatherDisplay:10.37,2013-01-23 03:29:00,
2013-01-22 22:34:00,7.8,-1.5,30.33,WSW,240,4.0,4.0,65,0.00,CLR,,0.00,WeatherDisplay:10.37,2013-01-23 03:34:00,
2013-01-22 22:39:00,7.8,-1.5,30.33,WSW,245,6.0,6.0,65,0.00,CLR,,0.00,WeatherDisplay:10.37,2013-01-23 03:39:00,
2013-01-22 22:44:00,7.9,-1.1,30.33,WSW,253,7.0,7.0,66,0.00,CLR,,0.00,WeatherDisplay:10.37,2013-01-23 03:44:00,
2013-01-22 22:49:00,8.2,-0.8,30.33,West,259,4.6,4.6,66,0.00,CLR,,0.00,WeatherDisplay:10.37,2013-01-23 03:49:00,
2013-01-22 22:54:00,8.3,-1.1,30.33,WSW,254,7.0,7.0,65,0.00,CLR,,0.00,WeatherDisplay:10.37,2013-01-23 03:54:00,
2013-01-22 22:59:00,8.4,-1.0,30.33,WSW,253,5.8,5.8,65,0.00,CLR,,0.00,WeatherDisplay:10.37,2013-01-23 03:59:00,
2013-01-22 23:04:00,8.5,-0.9,30.33,WSW,254,5.0,5.0,65,0.00,CLR,,0.00,WeatherDisplay:10.37,2013-01-23 04:04:00,
2013-01-22 23:09:00,8.5,-0.9,30.33,WSW,254,5.0,5.0,65,0.00,CLR,,0.00,WeatherDisplay:10.37,2013-01-23 04:09:00,
2013-01-22 23:14:00,8.4,-1.0,30.33,WSW,253,6.0,6.0,65,0.00,CLR,,0.00,WeatherDisplay:10.37,2013-01-23 04:14:00,
2013-01-22 23:19:00,8.5,-0.9,30.33,WSW,237,6.0,6.0,65,0.00,CLR,,0.00,WeatherDisplay:10.37,2013-01-23 04:19:00,
2013-01-22 23:24:00,8.5,-0.9,30.33,SW,234,7.0,7.0,65,0.00,CLR,,0.00,WeatherDisplay:10.37,2013-01-23 04:24:00,
2013-01-22 23:29:00,8.4,-1.0,30.33,West,261,8.1,8.1,65,0.00,CLR,,0.00,WeatherDisplay:10.37,2013-01-23 04:29:00,
2013-01-22 23:34:00,8.4,-1.0,30.33,WSW,255,6.9,6.9,65,0.00,CLR,,0.00,WeatherDisplay:10.37,2013-01-23 04:34:00,
2013-01-22 23:39:00,8.3,-0.7,30.33,West,269,5.0,5.0,66,0.00,CLR,,0.00,WeatherDisplay:10.37,2013-01-23 04:39:00,
2013-01-22 23:44:00,8.2,-1.2,30.33,WSW,256,8.1,8.1,65,0.00,CLR,,0.00,WeatherDisplay:10.37,2013-01-23 04:44:00,
2013-01-22 23:49:00,8.2,-0.8,30.33,WSW,245,7.0,7.0,66,0.00,CLR,,0.00,WeatherDisplay:10.37,2013-01-23 04:49:00,
2013-01-22 23:54:00,8.1,-0.9,30.33,SW,230,6.0,6.0,66,0.00,CLR,,0.00,WeatherDisplay:10.37,2013-01-23 04:54:00,
2013-01-22 23:59:00,8.1,-0.9,30.33,WSW,237,7.0,7.0,66,0.00,CLR,,0.00,WeatherDisplay:10.37,2013-01-23 04:59:00,